Location: Bathurst
(33.4193°S, 149.5775°E)
Time: 16:03:10
(UTC+10:00)

Tiros 1 - Visible Passes

Search period start: 15 June 2021 00:00
Search period end: 25 June 2021 00:00
Orbit: 630 x 664 km, 48.4° (Epoch: 14 June)

Date Brightness Start Highest point End Pass type
(mag) Time Alt. Az. Time Alt. Az. Time Alt. Az.
15 Jun 8.2 05:40:02 20° SSW 05:42:46 37° SSE 05:47:06 10° E visible
16 Jun 9.4 04:27:22 19° SE 04:27:22 19° SE 04:29:39 10° ESE visible
16 Jun 7.2 06:05:02 15° SW 06:08:53 80° SE 06:13:32 10° NE visible
17 Jun 8.3 04:52:25 35° SSE 04:52:30 35° SSE 04:56:47 10° E visible
17 Jun 7.8 06:30:20 10° WSW 06:34:45 41° NW 06:39:05 10° NNE visible
18 Jun 7.2 05:17:31 50° SSW 05:18:39 73° SE 05:23:18 10° ENE visible
19 Jun 9.7 04:05:00 18° E 04:05:00 18° E 04:06:27 10° E visible
19 Jun 7.6 05:42:41 30° W 05:44:32 46° NW 05:48:57 10° NNE visible
20 Jun 8.6 04:30:15 35° ENE 04:30:15 35° ENE 04:33:02 10° ENE visible
20 Jun 8.8 06:07:55 13° W 06:10:11 18° NW 06:13:19 10° N visible
21 Jun 8.0 04:55:32 40° N 04:55:32 40° N 04:58:48 10° NNE visible
22 Jun 8.8 05:20:53 19° NW 05:20:53 19° NW 05:23:23 10° N visible
22 Jun 9.4 19:25:05 10° NNW 19:26:11 16° N 19:26:11 16° N visible
23 Jun 10.0 04:08:34 10° NE 04:08:34 10° NE 04:08:39 10° NE visible
23 Jun 9.5 19:50:11 10° NW 19:51:34 19° NW 19:51:34 19° NW visible
24 Jun 8.3 18:35:00 10° N 18:39:00 26° NE 18:39:14 26° NE visible
24 Jun 10.1 20:16:17 10° WNW 20:16:55 14° WNW 20:16:55 14° WNW visible
